Вернуться в каталог

SL-16 DEB

АктивенLEO
NORAD 24284·DEBRIS·🇷🇺 Russia

Запущен Oct 31, 1995 с Baikonur Cosmodrome

Loading…

Ближайшие Пролёты (ближайшие 24 часа)

TLE

СвежийSource: Space-Track

Эпоха: Sep 14, 2026, 13:13 UTC

1 24284U 95058G   26257.55128898  .00000307  00000-0  16531-3 0  9994
2 24284  70.8616 210.4346 0012787 346.9506  13.1286 14.20595294596437

Отслеживайте SL-16 DEB в реальном времени с AllMySat

Download on the App Store